When you browse on this site, cookies collect data to enhance your experience and personalize the content and advertising you see.
Visit our Privacy Policy to learn more. By continuing to use the site, you agree to this use of cookies and data.
  • In Hungary
  • List of Countries
  • For 7 days
  • Water Temperature
  • Satellite Maps
  • Weather Map
  • News
  • Weather Widgets
  • user-avatar
    Login

    Hourly Weather Juticalpa

    Today, 22 July, Monday

    Time Temperature Precipitation Wind Pressure Humidity
    00:00 +21°C° 0 mm 0 mps 728 mmHg 97%
    01:00 +21°C° 0 mm 0 mps 727 mmHg 97%
    02:00 +21°C° 0 mm 0 mps 727 mmHg 96%
    03:00 +21°C° 0 mm 0 mps 727 mmHg 96%
    04:00 +21°C° 0 mm 0 mps 727 mmHg 96%
    05:00 +21°C° 0 mm 0 mps 727 mmHg 96%
    06:00 +21°C° 0 mm 0 mps 727 mmHg 96%
    07:00 +23°C° 0 mm 0 mps 728 mmHg 86%
    08:00 +27°C° 0 mm 1 mps 728 mmHg 76%
    09:00 +29°C° 0 mm 1 mps 728 mmHg 67%
    10:00 +30°C° 0 mm 1 mps 728 mmHg 61%
    11:00 +31°C° 0 mm 2 mps 728 mmHg 56%
    12:00 +32°C° 0 mm 2 mps 727 mmHg 50%
    13:00 +34°C° 0 mm 2 mps 727 mmHg 49%
    14:00 +34°C° 0 mm 2 mps 726 mmHg 47%
    15:00 +34°C° 0 mm 2 mps 726 mmHg 46%
    16:00 +32°C° 0 mm 2 mps 726 mmHg 52%
    17:00 +30°C° 0 mm 2 mps 726 mmHg 59%
    18:00 +28°C° 0 mm 1 mps 726 mmHg 66%
    19:00 +27°C° 0 mm 1 mps 727 mmHg 71%
    20:00 +26°C° 0 mm 1 mps 728 mmHg 76%
    21:00 +24°C° 0 mm 1 mps 728 mmHg 82%
    22:00 +22°C° 0 mm 0 mps 728 mmHg 86%
    23:00 +21°C° 0 mm 0 mps 728 mmHg 89%

    Tomorrow, 23 July, Tuesday

    Time Temperature Precipitation Wind Pressure Humidity
    00:00 +21°C° 0 mm 0 mps 728 mmHg 93%
    01:00 +21°C° 0 mm 0 mps 728 mmHg 94%
    02:00 +20°C° 0 mm 0 mps 727 mmHg 95%
    03:00 +20°C° 0 mm 0 mps 727 mmHg 96%
    04:00 +20°C° 0 mm 0 mps 727 mmHg 96%
    05:00 +20°C° 0 mm 0 mps 727 mmHg 96%
    06:00 +21°C° 0 mm 0 mps 727 mmHg 96%
    07:00 +23°C° 0 mm 0 mps 728 mmHg 88%
    08:00 +25°C° 0 mm 0 mps 728 mmHg 80%
    09:00 +29°C° 0 mm 1 mps 729 mmHg 71%
    10:00 +30°C° 0 mm 1 mps 728 mmHg 65%
    11:00 +31°C° 0 mm 1 mps 728 mmHg 58%
    12:00 +34°C° 0 mm 2 mps 727 mmHg 51%
    13:00 +33°C° 0 mm 1 mps 727 mmHg 49%
    14:00 +33°C° 0 mm 1 mps 726 mmHg 48%
    15:00 +34°C° 0 mm 1 mps 726 mmHg 46%
    16:00 +32°C° 0 mm 1 mps 726 mmHg 54%
    17:00 +30°C° 0 mm 1 mps 726 mmHg 61%
    18:00 +29°C° 0 mm 1 mps 726 mmHg 68%
    19:00 +27°C° 0.1 mm 1 mps 727 mmHg 75%
    20:00 +26°C° 0.1 mm 1 mps 728 mmHg 82%
    21:00 +24°C° 0.1 mm 1 mps 728 mmHg 89%
    22:00 +24°C° 0.5 mm 1 mps 728 mmHg 92%
    23:00 +23°C° 0.5 mm 1 mps 728 mmHg 94%

    Day after tomorrow, 24 July, Wednesday

    Time Temperature Precipitation Wind Pressure Humidity
    00:00 +21°C° 0.5 mm 0 mps 728 mmHg 97%
    01:00 +21°C° 0.1 mm 0 mps 728 mmHg 97%
    02:00 +21°C° 0.1 mm 0 mps 727 mmHg 98%
    03:00 +21°C° 0.1 mm 0 mps 727 mmHg 98%
    04:00 +21°C° 0 mm 0 mps 727 mmHg 98%
    05:00 +21°C° 0 mm 0 mps 727 mmHg 97%
    06:00 +21°C° 0 mm 0 mps 727 mmHg 97%
    07:00 +23°C° 0 mm 0 mps 728 mmHg 89%
    08:00 +25°C° 0 mm 0 mps 728 mmHg 81%
    09:00 +27°C° 0 mm 0 mps 729 mmHg 73%
    10:00 +30°C° 0 mm 1 mps 728 mmHg 66%
    11:00 +32°C° 0 mm 1 mps 728 mmHg 59%
    12:00 +33°C° 0 mm 1 mps 727 mmHg 52%
    13:00 +33°C° 0 mm 1 mps 727 mmHg 52%
    14:00 +33°C° 0 mm 1 mps 726 mmHg 51%
    15:00 +34°C° 0 mm 1 mps 726 mmHg 51%
    16:00 +32°C° 1.3 mm 2 mps 726 mmHg 61%
    17:00 +29°C° 1.3 mm 2 mps 726 mmHg 72%
    18:00 +27°C° 1.3 mm 2 mps 726 mmHg 83%
    19:00 +26°C° 1 mm 2 mps 727 mmHg 87%
    20:00 +26°C° 1 mm 1 mps 727 mmHg 91%
    21:00 +25°C° 1 mm 1 mps 728 mmHg 95%
    22:00 +24°C° 1.8 mm 1 mps 728 mmHg 96%
    23:00 +24°C° 1.8 mm 1 mps 728 mmHg 97%

    25 July, Thursday

    Time Temperature Precipitation Wind Pressure Humidity
    00:00 +22°C° 1.8 mm 0 mps 727 mmHg 98%
    01:00 +22°C° 0.2 mm 0 mps 727 mmHg 98%
    02:00 +22°C° 0.2 mm 0 mps 727 mmHg 98%
    03:00 +22°C° 0.2 mm 0 mps 727 mmHg 97%
    04:00 +22°C° 0.1 mm 0 mps 727 mmHg 97%
    05:00 +22°C° 0.1 mm 0 mps 727 mmHg 97%
    06:00 +22°C° 0.1 mm 0 mps 727 mmHg 97%
    07:00 +26°C° 0.1 mm 1 mps 728 mmHg 89%
    08:00 +27°C° 0.1 mm 1 mps 728 mmHg 81%
    09:00 +29°C° 0.1 mm 2 mps 728 mmHg 73%
    10:00 +30°C° 0.1 mm 2 mps 728 mmHg 68%
    11:00 +31°C° 0.1 mm 2 mps 728 mmHg 63%
    12:00 +33°C° 0.1 mm 3 mps 728 mmHg 58%
    13:00 +33°C° 0.1 mm 3 mps 727 mmHg 56%
    14:00 +33°C° 0.1 mm 3 mps 727 mmHg 55%
    15:00 +34°C° 0.1 mm 3 mps 726 mmHg 54%
    16:00 +31°C° 0.1 mm 3 mps 726 mmHg 62%
    17:00 +29°C° 0.1 mm 2 mps 727 mmHg 71%
    18:00 +27°C° 0.1 mm 2 mps 727 mmHg 79%
    19:00 +26°C° 0 mm 1 mps 727 mmHg 85%
    20:00 +25°C° 0 mm 1 mps 728 mmHg 90%
    21:00 +21°C° 0 mm 0 mps 728 mmHg 95%
    22:00 +21°C° 0.1 mm 0 mps 728 mmHg 95%
    23:00 +21°C° 0.1 mm 0 mps 728 mmHg 96%

    26 July, Friday

    Time Temperature Precipitation Wind Pressure Humidity
    00:00 +21°C° 0.1 mm 0 mps 728 mmHg 96%
    01:00 +20°C° 0.1 mm 0 mps 728 mmHg 96%
    02:00 +20°C° 0.1 mm 0 mps 727 mmHg 96%
    03:00 +20°C° 0.1 mm 0 mps 727 mmHg 96%
    04:00 +20°C° 0 mm 0 mps 727 mmHg 96%
    05:00 +20°C° 0 mm 0 mps 728 mmHg 96%
    06:00 +20°C° 0 mm 0 mps 728 mmHg 96%
    07:00 +24°C° 0 mm 1 mps 728 mmHg 86%
    08:00 +26°C° 0 mm 1 mps 729 mmHg 76%
    09:00 +29°C° 0 mm 2 mps 729 mmHg 66%
    10:00 +30°C° 0 mm 3 mps 729 mmHg 60%
    11:00 +31°C° 0 mm 3 mps 728 mmHg 53%
    12:00 +33°C° 0 mm 4 mps 728 mmHg 47%
    13:00 +33°C° 0 mm 4 mps 728 mmHg 47%
    14:00 +34°C° 0 mm 4 mps 727 mmHg 48%
    15:00 +34°C° 0 mm 4 mps 727 mmHg 49%
    16:00 +31°C° 0.2 mm 3 mps 727 mmHg 58%
    17:00 +29°C° 0.2 mm 3 mps 727 mmHg 68%
    18:00 +27°C° 0.2 mm 2 mps 727 mmHg 78%
    19:00 +26°C° 0.1 mm 1 mps 728 mmHg 83%
    20:00 +24°C° 0.1 mm 1 mps 728 mmHg 88%
    21:00 +21°C° 0.1 mm 0 mps 729 mmHg 93%
    22:00 +21°C° 0 mm 0 mps 729 mmHg 94%
    23:00 +20°C° 0 mm 0 mps 729 mmHg 94%

    27 July, Saturday

    Time Temperature Precipitation Wind Pressure Humidity
    00:00 +20°C° 0 mm 0 mps 729 mmHg 95%
    01:00 +20°C° 0 mm 0 mps 728 mmHg 96%
    02:00 +20°C° 0 mm 0 mps 728 mmHg 96%
    03:00 +20°C° 0 mm 0 mps 727 mmHg 96%
    04:00 +20°C° 0 mm 0 mps 728 mmHg 95%
    05:00 +20°C° 0 mm 0 mps 728 mmHg 95%
    06:00 +20°C° 0 mm 0 mps 728 mmHg 94%
    07:00 +23°C° 0.1 mm 0 mps 729 mmHg 86%
    08:00 +27°C° 0.1 mm 1 mps 729 mmHg 77%
    09:00 +29°C° 0.1 mm 1 mps 729 mmHg 69%
    10:00 +29°C° 0.7 mm 2 mps 729 mmHg 71%
    11:00 +29°C° 0.7 mm 2 mps 729 mmHg 73%
    12:00 +30°C° 0.7 mm 3 mps 728 mmHg 74%
    13:00 +29°C° 2 mm 3 mps 728 mmHg 79%
    14:00 +28°C° 2 mm 2 mps 728 mmHg 83%
    15:00 +27°C° 2 mm 2 mps 727 mmHg 87%
    16:00 +27°C° 1.2 mm 2 mps 728 mmHg 90%
    17:00 +26°C° 1.2 mm 1 mps 728 mmHg 92%
    18:00 +25°C° 1.2 mm 1 mps 728 mmHg 95%
    19:00 +25°C° 1.2 mm 1 mps 729 mmHg 96%
    20:00 +24°C° 1.2 mm 1 mps 729 mmHg 96%
    21:00 +24°C° 1.2 mm 1 mps 729 mmHg 97%
    22:00 +24°C° 0.2 mm 1 mps 729 mmHg 97%
    23:00 +24°C° 0.2 mm 1 mps 729 mmHg 96%
    Show more